TRA25R EHAM-LOWI

Flight info

Callsign TRA25R
Flight time 1h 14m
Altitude 35000
Route EDUPO Z739 MISGO DCT ASBON DCT TUSUK DCT ULNOK L607 TEDGO DCT BATUB/N0427F310 M738 MADEB MADEB1B
Aircraft A21N/M-SDE3FGHIRWY/LB1

Departure

Time 2026-05-05 13:11
Airport Amsterdam Airport Schiphol (EHAM)

Arrival

Time 2026-05-05 14:26
Airport Innsbruck Airport (LOWI)
Time Latitude Longitude Altitude Speed Heading
2026-05-05 12:21 52.30459 4.76713 -1 ft 0 kts 334°
2026-05-05 13:01 52.30446 4.76724 -1 ft 3 kts 334°
2026-05-05 13:01 52.30429 4.76737 -1 ft 3 kts 334°
2026-05-05 13:01 52.30412 4.76752 -1 ft 3 kts 295°
2026-05-05 13:02 52.30407 4.76781 -1 ft 3 kts 276°
2026-05-05 13:02 52.30409 4.76809 -1 ft 1 kts 248°
2026-05-05 13:02 52.30409 4.76811 -1 ft 0 kts 248°
2026-05-05 13:03 52.30408 4.76807 -1 ft 1 kts 247°
2026-05-05 13:04 52.30407 4.76802 -1 ft 0 kts 247°
2026-05-05 13:04 52.30393 4.76769 -1 ft 5 kts 233°
2026-05-05 13:04 52.30364 4.76700 -1 ft 11 kts 237°
2026-05-05 13:05 52.30318 4.76582 -1 ft 13 kts 238°
2026-05-05 13:05 52.30270 4.76455 -1 ft 14 kts 238°
2026-05-05 13:05 52.30213 4.76310 -1 ft 18 kts 238°
2026-05-05 13:05 52.30146 4.76133 -1 ft 19 kts 238°
2026-05-05 13:06 52.30074 4.75947 -1 ft 20 kts 238°
2026-05-05 13:06 52.29999 4.75752 -1 ft 21 kts 238°
2026-05-05 13:06 52.29922 4.75549 -1 ft 22 kts 238°
2026-05-05 13:06 52.29848 4.75355 -1 ft 16 kts 239°
2026-05-05 13:07 52.29849 4.75185 -1 ft 17 kts 306°
2026-05-05 13:07 52.29928 4.75035 -1 ft 18 kts 311°
2026-05-05 13:07 52.30017 4.74869 -1 ft 20 kts 311°
2026-05-05 13:07 52.30112 4.74695 6 ft 20 kts 311°
2026-05-05 13:08 52.30203 4.74527 10 ft 20 kts 311°
2026-05-05 13:08 52.30291 4.74363 8 ft 18 kts 310°
2026-05-05 13:08 52.30352 4.74246 -1 ft 10 kts 310°
2026-05-05 13:08 52.30370 4.74139 -1 ft 11 kts 258°
2026-05-05 13:09 52.30324 4.74039 -1 ft 12 kts 220°
2026-05-05 13:09 52.30256 4.73958 -1 ft 12 kts 216°
2026-05-05 13:09 52.30193 4.73865 -2 ft 13 kts 240°
2026-05-05 13:09 52.30190 4.73754 -2 ft 6 kts 291°
2026-05-05 13:10 52.30232 4.73741 -3 ft 7 kts
2026-05-05 13:10 52.30337 4.73751 -4 ft 37 kts
2026-05-05 13:10 52.30842 4.73798 0 ft 104 kts
2026-05-05 13:10 52.31747 4.73881 1 ft 153 kts
2026-05-05 13:11 52.32856 4.73964 397 ft 162 kts
2026-05-05 13:11 52.33944 4.74381 1032 ft 161 kts 26°
2026-05-05 13:11 52.35008 4.75134 1479 ft 175 kts 23°
2026-05-05 13:11 52.36211 4.75921 1728 ft 198 kts 23°
2026-05-05 13:12 52.37559 4.76848 2051 ft 223 kts 31°
2026-05-05 13:12 52.38786 4.78561 2648 ft 239 kts 46°
2026-05-05 13:12 52.39959 4.80539 3491 ft 245 kts 46°
2026-05-05 13:12 52.41136 4.82595 4413 ft 249 kts 51°
2026-05-05 13:13 52.42013 4.85093 5186 ft 259 kts 69°
2026-05-05 13:13 52.42388 4.88009 5982 ft 267 kts 87°
2026-05-05 13:13 52.42400 4.91086 6763 ft 273 kts 90°
2026-05-05 13:13 52.42390 4.94229 7536 ft 278 kts 94°
2026-05-05 13:14 52.41976 4.97357 8299 ft 283 kts 112°
2026-05-05 13:14 52.40980 5.00135 9095 ft 286 kts 131°
2026-05-05 13:14 52.39486 5.02306 9886 ft 290 kts 146°
2026-05-05 13:14 52.37801 5.04225 10355 ft 306 kts 145°
2026-05-05 13:15 52.35991 5.06295 10575 ft 328 kts 145°
2026-05-05 13:15 52.34124 5.08466 11080 ft 338 kts 142°
2026-05-05 13:15 52.32383 5.11171 11766 ft 344 kts 131°
2026-05-05 13:15 52.30787 5.14121 12488 ft 349 kts 132°
2026-05-05 13:16 52.29161 5.17091 13224 ft 352 kts 132°
2026-05-05 13:16 52.27507 5.20086 13905 ft 357 kts 133°
2026-05-05 13:16 52.25833 5.23106 14570 ft 360 kts 133°
2026-05-05 13:16 52.24155 5.26257 15263 ft 363 kts 127°
2026-05-05 13:17 52.22716 5.29569 15908 ft 366 kts 126°
2026-05-05 13:17 52.21248 5.32978 16587 ft 369 kts 126°
2026-05-05 13:17 52.19776 5.36389 17242 ft 372 kts 127°
2026-05-05 13:17 52.18267 5.39869 17909 ft 375 kts 127°
2026-05-05 13:18 52.16753 5.43342 18535 ft 377 kts 127°
2026-05-05 13:18 52.15230 5.46825 19133 ft 379 kts 127°
2026-05-05 13:18 52.13702 5.50320 19762 ft 379 kts 127°
2026-05-05 13:18 52.12171 5.53827 20328 ft 381 kts 127°
2026-05-05 13:19 52.10630 5.57355 20878 ft 384 kts 127°
2026-05-05 13:19 52.09076 5.60897 21415 ft 387 kts 127°
2026-05-05 13:19 52.07501 5.64470 21926 ft 390 kts 127°
2026-05-05 13:19 52.05886 5.68028 22440 ft 392 kts 131°
2026-05-05 13:20 52.04094 5.71394 22943 ft 395 kts 132°
2026-05-05 13:20 52.02284 5.74774 23457 ft 398 kts 133°
2026-05-05 13:20 52.00460 5.78168 23877 ft 401 kts 133°
2026-05-05 13:20 51.98620 5.81585 24292 ft 403 kts 133°
2026-05-05 13:21 51.96772 5.85021 24712 ft 406 kts 133°
2026-05-05 13:21 51.94913 5.88487 25122 ft 408 kts 133°
2026-05-05 13:21 51.93046 5.91978 25529 ft 411 kts 133°
2026-05-05 13:21 51.91170 5.95489 25938 ft 413 kts 134°
2026-05-05 13:22 51.89281 5.99019 26347 ft 416 kts 134°
2026-05-05 13:22 51.87384 6.02560 26779 ft 417 kts 134°
2026-05-05 13:22 51.85473 6.06112 27200 ft 419 kts 134°
2026-05-05 13:22 51.83552 6.09663 27595 ft 421 kts 134°
2026-05-05 13:23 51.81611 6.13230 27984 ft 423 kts 135°
2026-05-05 13:23 51.79652 6.16806 28372 ft 426 kts 135°
2026-05-05 13:23 51.77685 6.20385 28754 ft 428 kts 135°
2026-05-05 13:23 51.75704 6.23990 29132 ft 430 kts 135°
2026-05-05 13:24 51.73714 6.27617 29488 ft 432 kts 135°
2026-05-05 13:24 51.71719 6.31254 29824 ft 435 kts 135°
2026-05-05 13:24 51.69713 6.34914 30151 ft 436 kts 135°
2026-05-05 13:24 51.67729 6.38518 30441 ft 438 kts 135°
2026-05-05 13:25 51.65668 6.42253 30728 ft 440 kts 135°
2026-05-05 13:25 51.63623 6.45954 31030 ft 443 kts 136°
2026-05-05 13:25 51.61569 6.49668 31310 ft 445 kts 135°
2026-05-05 13:25 51.59517 6.53381 31737 ft 444 kts 136°
2026-05-05 13:26 51.57471 6.57086 32161 ft 443 kts 136°
2026-05-05 13:26 51.55425 6.60789 32602 ft 442 kts 136°
2026-05-05 13:26 51.53386 6.64474 33028 ft 441 kts 136°
2026-05-05 13:26 51.51371 6.68099 33452 ft 440 kts 137°
2026-05-05 13:27 51.49304 6.71803 33878 ft 440 kts 137°
2026-05-05 13:27 51.47266 6.75453 34216 ft 439 kts 137°
2026-05-05 13:27 51.45227 6.79099 34552 ft 439 kts 137°
2026-05-05 13:27 51.43184 6.82743 34825 ft 440 kts 137°
2026-05-05 13:28 51.38827 6.89213 34874 ft 421 kts 151°
2026-05-05 13:28 51.33928 6.94182 34878 ft 414 kts 153°
2026-05-05 13:29 51.29061 6.99083 34885 ft 412 kts 153°
2026-05-05 13:29 51.24207 7.03962 34882 ft 412 kts 153°
2026-05-05 13:30 51.19352 7.08821 34873 ft 412 kts 153°
2026-05-05 13:30 51.14499 7.13663 34844 ft 412 kts 153°
2026-05-05 13:31 51.09645 7.18484 34857 ft 411 kts 153°
2026-05-05 13:31 51.04806 7.23286 34872 ft 409 kts 153°
2026-05-05 13:32 50.99987 7.28063 34880 ft 408 kts 153°
2026-05-05 13:32 50.95175 7.32819 34878 ft 407 kts 153°
2026-05-05 13:33 50.90378 7.37550 34873 ft 406 kts 153°
2026-05-05 13:33 50.85582 7.42281 34867 ft 406 kts 153°
2026-05-05 13:34 50.80788 7.46986 34861 ft 405 kts 153°
2026-05-05 13:34 50.75990 7.51670 34818 ft 405 kts 153°
2026-05-05 13:35 50.71197 7.56366 34823 ft 406 kts 153°
2026-05-05 13:35 50.66471 7.61232 34828 ft 406 kts 152°
2026-05-05 13:36 50.61766 7.66177 34816 ft 406 kts 151°
2026-05-05 13:36 50.57062 7.71075 34833 ft 405 kts 151°
2026-05-05 13:37 50.52359 7.75919 34838 ft 403 kts 152°
2026-05-05 13:37 50.47665 7.80732 34838 ft 403 kts 152°
2026-05-05 13:38 50.42973 7.85533 34832 ft 402 kts 152°
2026-05-05 13:38 50.38283 7.90323 34806 ft 403 kts 152°
2026-05-05 13:39 50.34385 7.94297 34808 ft 403 kts 151°
2026-05-05 13:39 50.29684 7.99078 34814 ft 402 kts 152°
2026-05-05 13:40 50.24232 8.04614 34827 ft 402 kts 152°
2026-05-05 13:40 50.20295 8.08592 34834 ft 402 kts 152°
2026-05-05 13:41 50.15603 8.13337 34842 ft 402 kts 152°
2026-05-05 13:41 50.10928 8.17977 34854 ft 400 kts 152°
2026-05-05 13:42 50.06114 8.22425 34861 ft 399 kts 153°
2026-05-05 13:42 50.01355 8.26738 34843 ft 399 kts 154°
2026-05-05 13:43 49.96574 8.31119 34845 ft 399 kts 153°
2026-05-05 13:43 49.91804 8.35524 34814 ft 399 kts 153°
2026-05-05 13:44 49.87022 8.39917 34815 ft 399 kts 153°
2026-05-05 13:44 49.82603 8.45178 34817 ft 405 kts 141°
2026-05-05 13:45 49.78509 8.51164 34819 ft 405 kts 141°
2026-05-05 13:45 49.74387 8.57089 34817 ft 402 kts 145°
2026-05-05 13:46 49.69583 8.61238 34818 ft 393 kts 164°
2026-05-05 13:46 49.64263 8.62999 34820 ft 391 kts 172°
2026-05-05 13:47 49.58896 8.64476 34819 ft 392 kts 171°
2026-05-05 13:47 49.53526 8.65972 34819 ft 393 kts 171°
2026-05-05 13:48 49.48145 8.67474 34821 ft 393 kts 170°
2026-05-05 13:48 49.43027 8.70354 34822 ft 397 kts 158°
2026-05-05 13:49 49.37999 8.73869 34822 ft 397 kts 158°
2026-05-05 13:49 49.32961 8.77363 34822 ft 397 kts 158°
2026-05-05 13:50 49.27918 8.80848 34825 ft 398 kts 158°
2026-05-05 13:50 49.22874 8.84337 34830 ft 398 kts 158°
2026-05-05 13:51 49.17826 8.87821 34817 ft 398 kts 158°
2026-05-05 13:51 49.12776 8.91295 34819 ft 399 kts 158°
2026-05-05 13:52 49.07717 8.94774 34822 ft 399 kts 158°
2026-05-05 13:52 49.02660 8.98240 34826 ft 399 kts 158°
2026-05-05 13:53 48.97604 9.01699 34831 ft 398 kts 158°
2026-05-05 13:53 48.92542 9.05150 34836 ft 398 kts 158°
2026-05-05 13:54 48.87477 9.08583 34840 ft 399 kts 158°
2026-05-05 13:54 48.82424 9.12010 34847 ft 399 kts 158°
2026-05-05 13:55 48.77352 9.15445 34855 ft 399 kts 158°
2026-05-05 13:55 48.72275 9.18881 34836 ft 400 kts 158°
2026-05-05 13:56 48.67192 9.22304 34844 ft 400 kts 158°
2026-05-05 13:56 48.62106 9.25713 34848 ft 400 kts 160°
2026-05-05 13:57 48.56868 9.28473 34848 ft 399 kts 163°
2026-05-05 13:57 48.51611 9.31166 34845 ft 399 kts 163°
2026-05-05 13:58 48.46358 9.33859 34825 ft 399 kts 163°
2026-05-05 13:58 48.41136 9.36542 34832 ft 399 kts 163°
2026-05-05 13:59 48.33243 9.40555 34834 ft 399 kts 163°
2026-05-05 14:00 48.27976 9.43223 34588 ft 399 kts 163°
2026-05-05 14:00 48.25348 9.44557 34354 ft 399 kts 163°
2026-05-05 14:00 48.22704 9.45899 34082 ft 402 kts 163°
2026-05-05 14:00 48.20057 9.47244 33845 ft 402 kts 163°
2026-05-05 14:01 48.17407 9.48585 33592 ft 402 kts 163°
2026-05-05 14:01 48.14771 9.49917 33177 ft 399 kts 163°
2026-05-05 14:01 48.12148 9.51240 32665 ft 396 kts 162°
2026-05-05 14:01 48.09553 9.52550 32167 ft 392 kts 162°
2026-05-05 14:02 48.06983 9.53844 31673 ft 388 kts 162°
2026-05-05 14:02 48.04431 9.55127 31151 ft 385 kts 162°
2026-05-05 14:02 48.01965 9.56664 30631 ft 384 kts 154°
2026-05-05 14:02 47.99694 9.58779 30117 ft 384 kts 146°
2026-05-05 14:03 47.97545 9.61126 29563 ft 382 kts 146°
2026-05-05 14:03 47.95408 9.63448 29050 ft 378 kts 146°
2026-05-05 14:03 47.93284 9.65741 28555 ft 375 kts 146°
2026-05-05 14:03 47.91183 9.68007 28063 ft 372 kts 146°
2026-05-05 14:04 47.89091 9.70254 27570 ft 369 kts 146°
2026-05-05 14:04 47.87015 9.72484 27102 ft 367 kts 146°
2026-05-05 14:04 47.84955 9.74697 26636 ft 364 kts 146°
2026-05-05 14:04 47.82909 9.76899 26180 ft 361 kts 147°
2026-05-05 14:05 47.80883 9.79082 25757 ft 358 kts 147°
2026-05-05 14:05 47.78871 9.81249 25316 ft 356 kts 147°
2026-05-05 14:05 47.76871 9.83396 24901 ft 354 kts 147°
2026-05-05 14:05 47.74881 9.85527 24484 ft 351 kts 147°
2026-05-05 14:06 47.72909 9.87630 24056 ft 348 kts 147°
2026-05-05 14:06 47.70946 9.89721 23641 ft 346 kts 147°
2026-05-05 14:06 47.68998 9.91797 23190 ft 344 kts 147°
2026-05-05 14:06 47.67058 9.93869 22739 ft 341 kts 147°
2026-05-05 14:07 47.65144 9.95914 22317 ft 338 kts 147°
2026-05-05 14:07 47.63243 9.97940 21893 ft 336 kts 147°
2026-05-05 14:07 47.61348 9.99957 21470 ft 335 kts 147°
2026-05-05 14:07 47.59483 10.01941 21059 ft 334 kts 147°
2026-05-05 14:08 47.57575 10.03966 20630 ft 332 kts 147°
2026-05-05 14:08 47.55701 10.05952 20204 ft 332 kts 148°
2026-05-05 14:08 47.53846 10.07911 19751 ft 330 kts 148°
2026-05-05 14:08 47.51983 10.09880 19351 ft 329 kts 148°
2026-05-05 14:09 47.50122 10.11847 18929 ft 328 kts 148°
2026-05-05 14:09 47.48264 10.13809 18510 ft 328 kts 147°
2026-05-05 14:09 47.46409 10.15768 18081 ft 327 kts 147°
2026-05-05 14:09 47.44564 10.17715 17631 ft 325 kts 147°
2026-05-05 14:10 47.42712 10.19596 17388 ft 318 kts 150°
2026-05-05 14:10 47.40887 10.21315 17302 ft 305 kts 151°
2026-05-05 14:10 47.39112 10.22922 17228 ft 293 kts 152°
2026-05-05 14:10 47.37409 10.24442 17153 ft 280 kts 152°
2026-05-05 14:11 47.35772 10.25903 17057 ft 270 kts 152°
2026-05-05 14:11 47.34185 10.27341 16941 ft 266 kts 149°
2026-05-05 14:11 47.32847 10.29239 16830 ft 272 kts 128°
2026-05-05 14:11 47.32025 10.31799 16449 ft 284 kts 107°
2026-05-05 14:12 47.31636 10.34672 16060 ft 288 kts 105°
2026-05-05 14:12 47.31257 10.37532 15668 ft 281 kts 105°
2026-05-05 14:12 47.30882 10.40312 15287 ft 273 kts 105°
2026-05-05 14:12 47.30516 10.43000 14932 ft 261 kts 105°
2026-05-05 14:13 47.30162 10.45576 14562 ft 252 kts 105°
2026-05-05 14:13 47.29817 10.48066 14220 ft 243 kts 106°
2026-05-05 14:13 47.29482 10.50476 13885 ft 238 kts 106°
2026-05-05 14:13 47.29150 10.52857 13565 ft 236 kts 106°
2026-05-05 14:14 47.28826 10.55189 13212 ft 227 kts 106°
2026-05-05 14:14 47.28613 10.57392 13005 ft 209 kts 95°
2026-05-05 14:14 47.28695 10.59546 12976 ft 211 kts 89°
2026-05-05 14:14 47.28807 10.61705 12983 ft 212 kts 89°
2026-05-05 14:15 47.28916 10.63874 12981 ft 213 kts 89°
2026-05-05 14:15 47.29027 10.66052 12864 ft 215 kts 89°
2026-05-05 14:15 47.29138 10.68228 12498 ft 212 kts 89°
2026-05-05 14:15 47.29248 10.70381 12157 ft 210 kts 89°
2026-05-05 14:16 47.29357 10.72500 11807 ft 205 kts 88°
2026-05-05 14:16 47.29462 10.74584 11478 ft 203 kts 89°
2026-05-05 14:16 47.29564 10.76650 11146 ft 203 kts 89°
2026-05-05 14:16 47.29667 10.78710 10801 ft 200 kts 89°
2026-05-05 14:17 47.29769 10.80747 10480 ft 199 kts 89°
2026-05-05 14:17 47.29869 10.82738 10162 ft 188 kts 89°
2026-05-05 14:17 47.29963 10.84588 9850 ft 176 kts 89°
2026-05-05 14:17 47.30049 10.86352 9551 ft 171 kts 90°
2026-05-05 14:18 47.30133 10.88083 9239 ft 169 kts 88°
2026-05-05 14:18 47.30215 10.89810 8942 ft 169 kts 90°
2026-05-05 14:18 47.30299 10.91523 8645 ft 167 kts 89°
2026-05-05 14:18 47.30383 10.93222 8354 ft 166 kts 89°
2026-05-05 14:19 47.30465 10.94905 8070 ft 164 kts 90°
2026-05-05 14:19 47.30548 10.96580 7794 ft 164 kts 89°
2026-05-05 14:19 47.30630 10.98244 7526 ft 162 kts 89°
2026-05-05 14:19 47.30712 10.99880 7249 ft 159 kts 88°
2026-05-05 14:20 47.30796 11.01499 6971 ft 159 kts 88°
2026-05-05 14:20 47.30879 11.03117 6690 ft 158 kts 89°
2026-05-05 14:20 47.30943 11.04699 6452 ft 156 kts 89°
2026-05-05 14:20 47.30966 11.06285 6216 ft 154 kts 95°
2026-05-05 14:21 47.30836 11.07839 5995 ft 152 kts 103°
2026-05-05 14:21 47.30500 11.09305 5734 ft 150 kts 117°
2026-05-05 14:21 47.30027 11.10670 5507 ft 149 kts 120°
2026-05-05 14:21 47.29521 11.11982 5318 ft 147 kts 120°
2026-05-05 14:22 47.29047 11.13303 5090 ft 145 kts 117°
2026-05-05 14:22 47.28600 11.14633 4859 ft 145 kts 117°
2026-05-05 14:22 47.28144 11.15943 4650 ft 144 kts 117°
2026-05-05 14:22 47.27715 11.17275 4463 ft 144 kts 116°
2026-05-05 14:23 47.27295 11.18609 4247 ft 143 kts 115°
2026-05-05 14:23 47.26877 11.19950 3977 ft 145 kts 115°
2026-05-05 14:23 47.26458 11.21302 3768 ft 146 kts 116°
2026-05-05 14:23 47.26018 11.22659 3564 ft 147 kts 118°
2026-05-05 14:24 47.25557 11.23989 3385 ft 146 kts 115°
2026-05-05 14:24 47.25295 11.25433 3179 ft 148 kts 101°
2026-05-05 14:24 47.25262 11.26953 2930 ft 149 kts 89°
2026-05-05 14:24 47.25396 11.28449 2664 ft 147 kts 84°
2026-05-05 14:25 47.25551 11.29899 2404 ft 140 kts 85°
2026-05-05 14:25 47.25693 11.31284 2205 ft 136 kts 85°
2026-05-05 14:25 47.25832 11.32644 2008 ft 133 kts 84°
2026-05-05 14:25 47.25972 11.33954 1909 ft 120 kts 81°
2026-05-05 14:26 47.26064 11.34798 1905 ft 40 kts 81°
2026-05-05 14:26 47.26091 11.35036 1904 ft 21 kts 81°
2026-05-05 14:26 47.26107 11.35189 1904 ft 9 kts 81°
2026-05-05 14:26 47.26101 11.35234 1903 ft 4 kts 125°
2026-05-05 14:27 47.26069 11.35257 1900 ft 6 kts 165°
2026-05-05 14:27 47.26020 11.35268 1907 ft 8 kts 172°
2026-05-05 14:27 47.25985 11.35276 1900 ft 8 kts 171°
2026-05-05 14:27 47.25934 11.35289 1907 ft 7 kts 170°
2026-05-05 14:28 47.25903 11.35265 1894 ft 5 kts 238°
2026-05-05 14:28 47.25896 11.35221 1904 ft 4 kts 259°
2026-05-05 14:28 47.25891 11.35179 1896 ft 4 kts 261°
2026-05-05 14:28 47.25886 11.35130 1907 ft 6 kts 261°
2026-05-05 14:29 47.25879 11.35065 1894 ft 7 kts 261°
2026-05-05 14:29 47.25872 11.35002 1907 ft 3 kts 261°
2026-05-05 14:29 47.25860 11.34985 1899 ft 3 kts 203°
2026-05-05 14:29 47.25837 11.34984 1907 ft 4 kts 177°
2026-05-05 14:30 47.25822 11.34988 1907 ft 0 kts 167°
2026-05-05 14:30 47.25816 11.34990 1903 ft 1 kts 169°
2026-05-05 14:30 47.25814 11.34991 1902 ft 0 kts 170°